TimeCDT,TemperatureF,Dew PointF,Humidity,Sea Level PressureIn,VisibilityMPH,Wind Direction,Wind SpeedMPH,Gust SpeedMPH,PrecipitationIn,Events,Conditions,WindDirDegrees,DateUTC
12:53 AM,46.9,46.0,97,29.88,10.0,Calm,Calm,-,N/A,,Clear,0,2013-04-12 05:53:00
1:48 AM,46.4,44.6,93,29.87,1.8,Calm,Calm,-,N/A,,Clear,0,2013-04-12 06:48:00
1:53 AM,46.0,45.0,96,29.89,1.8,Calm,Calm,-,N/A,,Clear,0,2013-04-12 06:53:00
1:58 AM,46.4,44.6,93,29.87,3.0,Calm,Calm,-,N/A,,Clear,0,2013-04-12 06:58:00
2:53 AM,45.0,45.0,100,29.89,10.0,Calm,Calm,-,0.01,,Clear,0,2013-04-12 07:53:00
3:18 AM,44.6,44.6,100,29.88,2.5,Calm,Calm,-,N/A,,Partly Cloudy,0,2013-04-12 08:18:00
3:32 AM,46.4,44.6,93,29.89,10.0,North,3.5,-,N/A,,Scattered Clouds,350,2013-04-12 08:32:00
3:36 AM,44.6,44.6,100,29.89,2.0,Calm,Calm,-,N/A,,Mostly Cloudy,0,2013-04-12 08:36:00
3:38 AM,44.6,44.6,100,29.89,1.0,Calm,Calm,-,N/A,,Mist,0,2013-04-12 08:38:00
3:44 AM,44.6,44.6,100,29.89,0.2,Calm,Calm,-,N/A,Fog,Fog,0,2013-04-12 08:44:00
3:53 AM,45.0,45.0,100,29.91,0.2,Calm,Calm,-,N/A,Fog,Fog,0,2013-04-12 08:53:00
4:11 AM,44.6,44.6,100,29.90,0.8,Calm,Calm,-,N/A,,Mist,0,2013-04-12 09:11:00
4:41 AM,44.6,44.6,100,29.91,1.0,Calm,Calm,-,N/A,,Mist,0,2013-04-12 09:41:00
4:50 AM,44.6,44.6,100,29.91,3.0,Calm,Calm,-,N/A,,Scattered Clouds,0,2013-04-12 09:50:00
4:53 AM,45.0,44.1,97,29.93,4.0,Calm,Calm,-,N/A,,Scattered Clouds,0,2013-04-12 09:53:00
4:56 AM,44.6,44.6,100,29.91,1.5,Calm,Calm,-,N/A,,Scattered Clouds,0,2013-04-12 09:56:00
5:07 AM,44.6,42.8,93,29.91,3.0,Calm,Calm,-,N/A,,Partly Cloudy,0,2013-04-12 10:07:00
5:10 AM,44.6,42.8,93,29.91,1.8,Calm,Calm,-,N/A,,Partly Cloudy,0,2013-04-12 10:10:00
5:12 AM,44.6,42.8,93,29.91,0.8,Calm,Calm,-,N/A,,Mist,0,2013-04-12 10:12:00
5:20 AM,44.6,42.8,93,29.91,0.5,Calm,Calm,-,N/A,Fog,Fog,0,2013-04-12 10:20:00
5:29 AM,44.6,42.8,93,29.92,1.2,Calm,Calm,-,N/A,,Scattered Clouds,0,2013-04-12 10:29:00
5:32 AM,44.6,42.8,93,29.92,3.0,Calm,Calm,-,N/A,,Scattered Clouds,0,2013-04-12 10:32:00
5:36 AM,44.6,42.8,93,29.92,1.8,Calm,Calm,-,N/A,,Scattered Clouds,0,2013-04-12 10:36:00
5:43 AM,42.8,42.8,100,29.92,2.0,Calm,Calm,-,N/A,,Mostly Cloudy,0,2013-04-12 10:43:00
5:49 AM,42.8,42.8,100,29.92,5.0,Calm,Calm,-,N/A,,Scattered Clouds,0,2013-04-12 10:49:00
5:53 AM,44.1,43.0,96,29.94,3.0,Calm,Calm,-,N/A,,Scattered Clouds,0,2013-04-12 10:53:00
5:55 AM,44.6,42.8,93,29.92,1.8,Calm,Calm,-,N/A,,Scattered Clouds,0,2013-04-12 10:55:00
6:01 AM,44.6,42.8,93,29.92,0.8,Calm,Calm,-,N/A,,Mist,0,2013-04-12 11:01:00
6:10 AM,44.6,42.8,93,29.93,1.2,Calm,Calm,-,N/A,,Scattered Clouds,0,2013-04-12 11:10:00
6:15 AM,42.8,42.8,100,29.93,3.0,Calm,Calm,-,N/A,,Partly Cloudy,0,2013-04-12 11:15:00
6:21 AM,44.6,42.8,93,29.93,1.8,Calm,Calm,-,N/A,,Partly Cloudy,0,2013-04-12 11:21:00
6:26 AM,42.8,42.8,100,29.93,0.8,Calm,Calm,-,N/A,,Mist,0,2013-04-12 11:26:00
6:33 AM,42.8,42.8,100,29.94,0.5,Calm,Calm,-,N/A,Fog,Fog,0,2013-04-12 11:33:00
6:53 AM,43.0,42.1,97,29.96,0.8,Calm,Calm,-,N/A,,Mist,0,2013-04-12 11:53:00
6:58 AM,42.8,42.8,100,29.95,3.0,Calm,Calm,-,N/A,,Overcast,0,2013-04-12 11:58:00
7:03 AM,42.8,42.8,100,29.95,1.5,Calm,Calm,-,N/A,,Overcast,0,2013-04-12 12:03:00
7:08 AM,42.8,41.0,93,29.95,0.2,Calm,Calm,-,N/A,Fog,Fog,0,2013-04-12 12:08:00
7:17 AM,42.8,42.8,100,29.95,1.0,Calm,Calm,-,N/A,,Mist,0,2013-04-12 12:17:00
7:21 AM,42.8,42.8,100,29.96,4.0,Calm,Calm,-,N/A,,Mostly Cloudy,0,2013-04-12 12:21:00
7:28 AM,42.8,42.8,100,29.96,7.0,Calm,Calm,-,N/A,,Scattered Clouds,0,2013-04-12 12:28:00
7:53 AM,46.0,46.0,100,29.98,10.0,Calm,Calm,-,N/A,,Clear,0,2013-04-12 12:53:00
8:53 AM,53.1,48.0,83,30.00,10.0,Calm,Calm,-,N/A,,Clear,0,2013-04-12 13:53:00
9:53 AM,59.0,45.0,60,30.01,10.0,Calm,Calm,-,N/A,,Clear,0,2013-04-12 14:53:00
10:53 AM,61.0,43.0,52,30.03,10.0,Calm,Calm,-,N/A,,Clear,0,2013-04-12 15:53:00
11:53 AM,64.0,46.0,52,30.02,10.0,Variable,3.5,-,N/A,,Clear,0,2013-04-12 16:53:00
12:53 PM,66.9,44.1,44,30.01,10.0,NW,3.5,-,N/A,,Clear,310,2013-04-12 17:53:00
1:53 PM,70.0,44.1,39,29.99,10.0,Variable,3.5,-,N/A,,Clear,0,2013-04-12 18:53:00
2:53 PM,72.0,42.1,34,29.97,10.0,Variable,4.6,-,N/A,,Clear,0,2013-04-12 19:53:00
3:53 PM,73.9,41.0,30,29.95,10.0,WNW,5.8,-,N/A,,Clear,300,2013-04-12 20:53:00
4:53 PM,73.9,39.0,28,29.93,10.0,Calm,Calm,-,N/A,,Clear,0,2013-04-12 21:53:00
5:53 PM,73.9,43.0,33,29.93,10.0,North,5.8,-,N/A,,Clear,350,2013-04-12 22:53:00
6:53 PM,72.0,43.0,35,29.92,10.0,North,3.5,-,N/A,,Clear,350,2013-04-12 23:53:00
7:53 PM,63.0,48.9,60,29.94,10.0,Calm,Calm,-,N/A,,Clear,0,2013-04-13 00:53:00
8:53 PM,59.0,48.0,67,29.96,10.0,Calm,Calm,-,N/A,,Clear,0,2013-04-13 01:53:00
9:53 PM,55.9,46.9,72,29.97,10.0,Calm,Calm,-,N/A,,Clear,0,2013-04-13 02:53:00
10:53 PM,55.0,48.0,77,29.99,10.0,Calm,Calm,-,N/A,,Clear,0,2013-04-13 03:53:00
11:53 PM,53.1,50.0,89,30.00,10.0,Calm,Calm,-,N/A,,Clear,0,2013-04-13 04:53:00